Location: Bessat
(45.8735°N, 1.9924°E)
Time: 20:35:27
(UTC+00:00)

COSMOS 2406 - Pass Details

Date: 11 May 2021
Orbit: 844 x 862 km, 71.0° (Epoch: 20 June)

Event Time Altitude Azimuth Distance (km) Brightness Sun altitude
Rises 21:42:23 0° 328° (NNW) 3,414 8.0 -19.9°
Reaches altitude 10° 21:44:56 10° 322° (NW) 2,475 6.8 -20.2°
Maximum altitude 21:50:16 44° 252° (WSW) 1,166 4.0 -20.6°
Enters shadow 21:52:48 27° 200° (SSW) 1,563 4.2 -20.9°
